Year,Month,Day,Hour,Minute,Value (Times are PST for insolation in W/m^2)
2008,06,09,00,00,0.00
2008,06,09,00,01,0.00
2008,06,09,00,02,0.00
2008,06,09,00,03,0.00
2008,06,09,00,04,0.00
2008,06,09,00,05,0.00
2008,06,09,00,06,0.00
2008,06,09,00,07,0.00
2008,06,09,00,08,0.00
2008,06,09,00,09,0.00
2008,06,09,00,10,0.00
2008,06,09,00,11,0.00
2008,06,09,00,12,0.00
2008,06,09,00,13,0.00
2008,06,09,00,14,0.00
2008,06,09,00,15,0.00
2008,06,09,00,16,0.00
2008,06,09,00,17,0.00
2008,06,09,00,18,0.00
2008,06,09,00,19,0.00
2008,06,09,00,20,0.00
2008,06,09,00,21,0.00
2008,06,09,00,22,0.00
2008,06,09,00,23,0.00
2008,06,09,00,24,0.00
2008,06,09,00,25,0.00
2008,06,09,00,26,0.00
2008,06,09,00,27,0.00
2008,06,09,00,28,0.00
2008,06,09,00,29,0.00
2008,06,09,00,30,0.00
2008,06,09,00,31,0.00
2008,06,09,00,32,0.00
2008,06,09,00,33,0.00
2008,06,09,00,34,0.00
2008,06,09,00,35,0.00
2008,06,09,00,36,0.00
2008,06,09,00,37,0.00
2008,06,09,00,38,0.00
2008,06,09,00,39,0.00
2008,06,09,00,40,0.00
2008,06,09,00,41,0.00
2008,06,09,00,42,0.00
2008,06,09,00,43,0.00
2008,06,09,00,44,0.00
2008,06,09,00,45,0.00
2008,06,09,00,46,0.00
2008,06,09,00,47,0.00
2008,06,09,00,48,0.00
2008,06,09,00,49,0.00
2008,06,09,00,50,0.00
2008,06,09,00,51,0.00
2008,06,09,00,52,0.00
2008,06,09,00,53,0.00
2008,06,09,00,54,0.00
2008,06,09,00,55,0.00
2008,06,09,00,56,0.00
2008,06,09,00,57,0.00
2008,06,09,00,58,0.00
2008,06,09,00,59,0.00
2008,06,09,01,00,0.00
2008,06,09,01,01,0.00
2008,06,09,01,02,0.00
2008,06,09,01,03,0.00
2008,06,09,01,04,0.00
2008,06,09,01,05,0.00
2008,06,09,01,06,0.00
2008,06,09,01,07,0.00
2008,06,09,01,08,0.00
2008,06,09,01,09,0.00
2008,06,09,01,10,0.00
2008,06,09,01,11,0.00
2008,06,09,01,12,0.00
2008,06,09,01,13,0.00
2008,06,09,01,14,0.00
2008,06,09,01,15,0.00
2008,06,09,01,16,0.00
2008,06,09,01,17,0.00
2008,06,09,01,18,0.00
2008,06,09,01,19,0.00
2008,06,09,01,20,0.00
2008,06,09,01,21,0.00
2008,06,09,01,22,0.00
2008,06,09,01,23,0.00
2008,06,09,01,24,0.00
2008,06,09,01,25,0.00
2008,06,09,01,26,0.00
2008,06,09,01,27,0.00
2008,06,09,01,28,0.00
2008,06,09,01,29,0.00
2008,06,09,01,30,0.00
2008,06,09,01,31,0.00
2008,06,09,01,32,0.00
2008,06,09,01,33,0.00
2008,06,09,01,34,0.00
2008,06,09,01,35,0.00
2008,06,09,01,36,0.00
2008,06,09,01,37,0.00
2008,06,09,01,38,0.00
2008,06,09,01,39,0.00
2008,06,09,01,40,0.00
2008,06,09,01,41,0.00
2008,06,09,01,42,0.00
2008,06,09,01,43,0.00
2008,06,09,01,44,0.00
2008,06,09,01,45,0.00
2008,06,09,01,46,0.00
2008,06,09,01,47,0.00
2008,06,09,01,48,0.00
2008,06,09,01,49,0.00
2008,06,09,01,50,0.00
2008,06,09,01,51,0.00
2008,06,09,01,52,0.00
2008,06,09,01,53,0.00
2008,06,09,01,54,0.00
2008,06,09,01,55,0.00
2008,06,09,01,56,0.00
2008,06,09,01,57,0.00
2008,06,09,01,58,0.00
2008,06,09,01,59,0.00
2008,06,09,02,00,0.00
2008,06,09,02,01,0.00
2008,06,09,02,02,0.00
2008,06,09,02,03,0.00
2008,06,09,02,04,0.00
2008,06,09,02,05,0.00
2008,06,09,02,06,0.00
2008,06,09,02,07,0.00
2008,06,09,02,08,0.00
2008,06,09,02,09,0.00
2008,06,09,02,10,0.00
2008,06,09,02,11,0.00
2008,06,09,02,12,0.00
2008,06,09,02,13,0.00
2008,06,09,02,14,0.00
2008,06,09,02,15,0.00
2008,06,09,02,16,0.00
2008,06,09,02,17,0.00
2008,06,09,02,18,0.00
2008,06,09,02,19,0.00
2008,06,09,02,20,0.00
2008,06,09,02,21,0.00
2008,06,09,02,22,0.00
2008,06,09,02,23,0.00
2008,06,09,02,24,0.00
2008,06,09,02,25,0.00
2008,06,09,02,26,0.00
2008,06,09,02,27,0.00
2008,06,09,02,28,0.00
2008,06,09,02,29,0.00
2008,06,09,02,30,0.00
2008,06,09,02,31,0.00
2008,06,09,02,32,0.00
2008,06,09,02,33,0.00
2008,06,09,02,34,0.00
2008,06,09,02,35,0.00
2008,06,09,02,36,0.00
2008,06,09,02,37,0.00
2008,06,09,02,38,0.00
2008,06,09,02,39,0.00
2008,06,09,02,40,0.00
2008,06,09,02,41,0.00
2008,06,09,02,42,0.00
2008,06,09,02,43,0.00
2008,06,09,02,44,0.00
2008,06,09,02,45,0.00
2008,06,09,02,46,0.00
2008,06,09,02,47,0.00
2008,06,09,02,48,0.00
2008,06,09,02,49,0.00
2008,06,09,02,50,0.00
2008,06,09,02,51,0.00
2008,06,09,02,52,0.00
2008,06,09,02,53,0.00
2008,06,09,02,54,0.00
2008,06,09,02,55,0.00
2008,06,09,02,56,0.00
2008,06,09,02,57,0.00
2008,06,09,02,58,0.00
2008,06,09,02,59,0.00
2008,06,09,03,00,0.00
2008,06,09,03,01,0.00
2008,06,09,03,02,0.00
2008,06,09,03,03,0.00
2008,06,09,03,04,0.00
2008,06,09,03,05,0.00
2008,06,09,03,06,0.00
2008,06,09,03,07,0.00
2008,06,09,03,08,0.00
2008,06,09,03,09,0.00
2008,06,09,03,10,0.00
2008,06,09,03,11,0.00
2008,06,09,03,12,0.00
2008,06,09,03,13,0.00
2008,06,09,03,14,0.00
2008,06,09,03,15,0.00
2008,06,09,03,16,0.00
2008,06,09,03,17,0.00
2008,06,09,03,18,0.00
2008,06,09,03,19,0.00
2008,06,09,03,20,0.00
2008,06,09,03,21,0.00
2008,06,09,03,22,0.00
2008,06,09,03,23,0.00
2008,06,09,03,24,0.00
2008,06,09,03,25,0.00
2008,06,09,03,26,0.00
2008,06,09,03,27,0.00
2008,06,09,03,28,0.00
2008,06,09,03,29,0.00
2008,06,09,03,30,0.00
2008,06,09,03,31,0.00
2008,06,09,03,32,0.00
2008,06,09,03,33,0.00
2008,06,09,03,34,0.00
2008,06,09,03,35,0.00
2008,06,09,03,36,0.00
2008,06,09,03,37,0.00
2008,06,09,03,38,0.00
2008,06,09,03,39,0.00
2008,06,09,03,40,0.00
2008,06,09,03,41,0.00
2008,06,09,03,42,0.00
2008,06,09,03,43,0.00
2008,06,09,03,44,0.00
2008,06,09,03,45,0.00
2008,06,09,03,46,0.00
2008,06,09,03,47,0.00
2008,06,09,03,48,0.00
2008,06,09,03,49,0.00
2008,06,09,03,50,0.00
2008,06,09,03,51,0.00
2008,06,09,03,52,0.00
2008,06,09,03,53,0.00
2008,06,09,03,54,0.00
2008,06,09,03,55,0.00
2008,06,09,03,56,0.00
2008,06,09,03,57,0.00
2008,06,09,03,58,0.00
2008,06,09,03,59,0.00
2008,06,09,04,00,0.00
2008,06,09,04,01,0.00
2008,06,09,04,02,0.00
2008,06,09,04,03,0.00
2008,06,09,04,04,0.00
2008,06,09,04,05,0.00
2008,06,09,04,06,0.00
2008,06,09,04,07,0.00
2008,06,09,04,08,0.00
2008,06,09,04,09,0.00
2008,06,09,04,10,0.00
2008,06,09,04,11,0.00
2008,06,09,04,12,0.00
2008,06,09,04,13,0.00
2008,06,09,04,14,0.00
2008,06,09,04,15,0.00
2008,06,09,04,16,0.00
2008,06,09,04,17,0.00
2008,06,09,04,18,0.00
2008,06,09,04,19,0.00
2008,06,09,04,20,0.00
2008,06,09,04,21,0.00
2008,06,09,04,22,0.00
2008,06,09,04,23,0.00
2008,06,09,04,24,0.00
2008,06,09,04,25,0.00
2008,06,09,04,26,0.00
2008,06,09,04,27,0.00
2008,06,09,04,28,0.00
2008,06,09,04,29,0.00
2008,06,09,04,30,0.00
2008,06,09,04,31,0.00
2008,06,09,04,32,0.00
2008,06,09,04,33,0.00
2008,06,09,04,34,0.00
2008,06,09,04,35,0.00
2008,06,09,04,36,0.00
2008,06,09,04,37,0.00
2008,06,09,04,38,0.00
2008,06,09,04,39,0.00
2008,06,09,04,40,0.00
2008,06,09,04,41,0.00
2008,06,09,04,42,0.00
2008,06,09,04,43,0.00
2008,06,09,04,44,0.00
2008,06,09,04,45,0.00
2008,06,09,04,46,0.00
2008,06,09,04,47,0.00
2008,06,09,04,48,0.00
2008,06,09,04,49,0.00
2008,06,09,04,50,0.00
2008,06,09,04,51,0.00
2008,06,09,04,52,0.00
2008,06,09,04,53,0.00
2008,06,09,04,54,0.00
2008,06,09,04,55,0.00
2008,06,09,04,56,0.00
2008,06,09,04,57,0.00
2008,06,09,04,58,0.00
2008,06,09,04,59,0.00
2008,06,09,05,00,0.00
2008,06,09,05,01,0.00
2008,06,09,05,02,0.00
2008,06,09,05,03,0.00
2008,06,09,05,04,0.00
2008,06,09,05,05,0.00
2008,06,09,05,06,0.00
2008,06,09,05,07,0.00
2008,06,09,05,08,0.00
2008,06,09,05,09,0.00
2008,06,09,05,10,0.00
2008,06,09,05,11,0.00
2008,06,09,05,12,0.00
2008,06,09,05,13,0.00
2008,06,09,05,14,0.00
2008,06,09,05,15,0.00
2008,06,09,05,16,0.00
2008,06,09,05,17,0.00
2008,06,09,05,18,0.00
2008,06,09,05,19,0.00
2008,06,09,05,20,5.00
2008,06,09,05,21,5.00
2008,06,09,05,22,5.00
2008,06,09,05,23,5.00
2008,06,09,05,24,5.30
2008,06,09,05,25,7.00
2008,06,09,05,26,7.50
2008,06,09,05,27,9.00
2008,06,09,05,28,9.80
2008,06,09,05,29,11.00
2008,06,09,05,30,11.40
2008,06,09,05,31,12.00
2008,06,09,05,32,13.10
2008,06,09,05,33,14.00
2008,06,09,05,34,14.00
2008,06,09,05,35,12.70
2008,06,09,05,36,13.40
2008,06,09,05,37,14.00
2008,06,09,05,38,15.60
2008,06,09,05,39,17.80
2008,06,09,05,40,18.00
2008,06,09,05,41,19.00
2008,06,09,05,42,19.00
2008,06,09,05,43,21.00
2008,06,09,05,44,21.00
2008,06,09,05,45,23.00
2008,06,09,05,46,22.80
2008,06,09,05,47,20.50
2008,06,09,05,48,17.10
2008,06,09,05,49,14.00
2008,06,09,05,50,13.40
2008,06,09,05,51,12.00
2008,06,09,05,52,12.00
2008,06,09,05,53,12.80
2008,06,09,05,54,14.00
2008,06,09,05,55,14.00
2008,06,09,05,56,14.00
2008,06,09,05,57,15.10
2008,06,09,05,58,16.00
2008,06,09,05,59,17.40
2008,06,09,06,00,18.60
2008,06,09,06,01,22.00
2008,06,09,06,02,25.60
2008,06,09,06,03,29.80
2008,06,09,06,04,34.20
2008,06,09,06,05,40.00
2008,06,09,06,06,46.00
2008,06,09,06,07,53.00
2008,06,09,06,08,58.30
2008,06,09,06,09,65.50
2008,06,09,06,10,69.50
2008,06,09,06,11,72.40
2008,06,09,06,12,73.40
2008,06,09,06,13,71.00
2008,06,09,06,14,66.70
2008,06,09,06,15,60.80
2008,06,09,06,16,54.70
2008,06,09,06,17,48.50
2008,06,09,06,18,43.90
2008,06,09,06,19,40.50
2008,06,09,06,20,36.40
2008,06,09,06,21,33.80
2008,06,09,06,22,32.20
2008,06,09,06,23,30.50
2008,06,09,06,24,31.40
2008,06,09,06,25,32.00
2008,06,09,06,26,32.90
2008,06,09,06,27,35.00
2008,06,09,06,28,38.60
2008,06,09,06,29,40.00
2008,06,09,06,30,44.00
2008,06,09,06,31,49.40
2008,06,09,06,32,56.70
2008,06,09,06,33,64.10
2008,06,09,06,34,69.70
2008,06,09,06,35,72.00
2008,06,09,06,36,72.70
2008,06,09,06,37,74.70
2008,06,09,06,38,76.00
2008,06,09,06,39,74.40
2008,06,09,06,40,71.10
2008,06,09,06,41,68.40
2008,06,09,06,42,65.90
2008,06,09,06,43,63.70
2008,06,09,06,44,62.30
2008,06,09,06,45,60.80
2008,06,09,06,46,61.50
2008,06,09,06,47,62.00
2008,06,09,06,48,64.60
2008,06,09,06,49,66.60
2008,06,09,06,50,70.00
2008,06,09,06,51,74.00
2008,06,09,06,52,78.80
2008,06,09,06,53,86.40
2008,06,09,06,54,93.30
2008,06,09,06,55,98.00
2008,06,09,06,56,97.80
2008,06,09,06,57,95.60
2008,06,09,06,58,89.40
2008,06,09,06,59,82.30
2008,06,09,07,00,78.30
2008,06,09,07,01,77.00
2008,06,09,07,02,77.00
2008,06,09,07,03,77.00
2008,06,09,07,04,79.20
2008,06,09,07,05,82.80
2008,06,09,07,06,87.90
2008,06,09,07,07,90.60
2008,06,09,07,08,92.50
2008,06,09,07,09,96.10
2008,06,09,07,10,99.50
2008,06,09,07,11,103.80
2008,06,09,07,12,105.00
2008,06,09,07,13,104.00
2008,06,09,07,14,100.40
2008,06,09,07,15,91.00
2008,06,09,07,16,84.30
2008,06,09,07,17,76.90
2008,06,09,07,18,76.10
2008,06,09,07,19,77.00
2008,06,09,07,20,77.40
2008,06,09,07,21,80.00
2008,06,09,07,22,83.90
2008,06,09,07,23,86.70
2008,06,09,07,24,89.20
2008,06,09,07,25,91.00
2008,06,09,07,26,89.60
2008,06,09,07,27,88.00
2008,06,09,07,28,82.70
2008,06,09,07,29,77.70
2008,06,09,07,30,78.20
2008,06,09,07,31,81.60
2008,06,09,07,32,85.50
2008,06,09,07,33,90.20
2008,06,09,07,34,97.20
2008,06,09,07,35,102.80
2008,06,09,07,36,110.60
2008,06,09,07,37,116.00
2008,06,09,07,38,119.80
2008,06,09,07,39,123.00
2008,06,09,07,40,127.10
2008,06,09,07,41,128.70
2008,06,09,07,42,134.90
2008,06,09,07,43,139.90
2008,06,09,07,44,145.20
2008,06,09,07,45,149.60
2008,06,09,07,46,150.30
2008,06,09,07,47,149.00
2008,06,09,07,48,149.00
2008,06,09,07,49,148.50
2008,06,09,07,50,146.90
2008,06,09,07,51,141.90
2008,06,09,07,52,136.70
2008,06,09,07,53,135.00
2008,06,09,07,54,129.60
2008,06,09,07,55,128.00
2008,06,09,07,56,128.00
2008,06,09,07,57,129.80
2008,06,09,07,58,128.10
2008,06,09,07,59,125.40
2008,06,09,08,00,121.00
2008,06,09,08,01,120.00
2008,06,09,08,02,118.00
2008,06,09,08,03,113.80
2008,06,09,08,04,110.20
2008,06,09,08,05,102.90
2008,06,09,08,06,97.00
2008,06,09,08,07,92.30
2008,06,09,08,08,90.00
2008,06,09,08,09,90.00
2008,06,09,08,10,90.00
2008,06,09,08,11,90.40
2008,06,09,08,12,91.00
2008,06,09,08,13,93.20
2008,06,09,08,14,95.00
2008,06,09,08,15,95.00
2008,06,09,08,16,95.00
2008,06,09,08,17,90.70
2008,06,09,08,18,84.90
2008,06,09,08,19,79.90
2008,06,09,08,20,76.30
2008,06,09,08,21,72.40
2008,06,09,08,22,69.00
2008,06,09,08,23,67.20
2008,06,09,08,24,67.00
2008,06,09,08,25,65.10
2008,06,09,08,26,62.00
2008,06,09,08,27,61.50
2008,06,09,08,28,57.70
2008,06,09,08,29,56.00
2008,06,09,08,30,56.00
2008,06,09,08,31,56.70
2008,06,09,08,32,58.70
2008,06,09,08,33,60.80
2008,06,09,08,34,62.50
2008,06,09,08,35,63.90
2008,06,09,08,36,67.10
2008,06,09,08,37,69.60
2008,06,09,08,38,73.40
2008,06,09,08,39,79.50
2008,06,09,08,40,84.50
2008,06,09,08,41,90.90
2008,06,09,08,42,93.00
2008,06,09,08,43,110.60
2008,06,09,08,44,119.40
2008,06,09,08,45,130.00
2008,06,09,08,46,137.00
2008,06,09,08,47,141.80
2008,06,09,08,48,148.00
2008,06,09,08,49,151.20
2008,06,09,08,50,155.10
2008,06,09,08,51,156.00
2008,06,09,08,52,155.80
2008,06,09,08,53,154.50
2008,06,09,08,54,153.00
2008,06,09,08,55,153.00
2008,06,09,08,56,153.70
2008,06,09,08,57,156.20
2008,06,09,08,58,160.00
2008,06,09,08,59,167.40
2008,06,09,09,00,173.90
2008,06,09,09,01,178.80
2008,06,09,09,02,183.40
2008,06,09,09,03,188.60
2008,06,09,09,04,190.00
2008,06,09,09,05,201.20
2008,06,09,09,06,212.20
2008,06,09,09,07,215.80
2008,06,09,09,08,216.00
2008,06,09,09,09,218.00
2008,06,09,09,10,221.00
2008,06,09,09,11,224.90
2008,06,09,09,12,227.10
2008,06,09,09,13,229.10
2008,06,09,09,14,230.30
2008,06,09,09,15,232.00
2008,06,09,09,16,232.50
2008,06,09,09,17,234.00
2008,06,09,09,18,233.40
2008,06,09,09,19,229.30
2008,06,09,09,20,218.40
2008,06,09,09,21,200.50
2008,06,09,09,22,176.50
2008,06,09,09,23,147.70
2008,06,09,09,24,127.00
2008,06,09,09,25,108.80
2008,06,09,09,26,101.90
2008,06,09,09,27,102.60
2008,06,09,09,28,110.40
2008,06,09,09,29,123.60
2008,06,09,09,30,138.20
2008,06,09,09,31,139.00
2008,06,09,09,32,158.70
2008,06,09,09,33,167.00
2008,06,09,09,34,168.90
2008,06,09,09,35,169.20
2008,06,09,09,36,175.10
2008,06,09,09,37,185.10
2008,06,09,09,38,197.80
2008,06,09,09,39,213.80
2008,06,09,09,40,227.70
2008,06,09,09,41,235.80
2008,06,09,09,42,242.50
2008,06,09,09,43,247.20
2008,06,09,09,44,248.40
2008,06,09,09,45,254.10
2008,06,09,09,46,255.40
2008,06,09,09,47,249.80
2008,06,09,09,48,238.10
2008,06,09,09,49,231.40
2008,06,09,09,50,222.40
2008,06,09,09,51,215.00
2008,06,09,09,52,195.50
2008,06,09,09,53,193.00
2008,06,09,09,54,202.00
2008,06,09,09,55,223.00
2008,06,09,09,56,251.00
2008,06,09,09,57,278.80
2008,06,09,09,58,302.60
2008,06,09,09,59,313.20
2008,06,09,10,00,314.70
2008,06,09,10,01,311.10
2008,06,09,10,02,298.00
2008,06,09,10,03,279.60
2008,06,09,10,04,262.10
2008,06,09,10,05,251.10
2008,06,09,10,06,250.40
2008,06,09,10,07,258.50
2008,06,09,10,08,270.40
2008,06,09,10,09,278.50
2008,06,09,10,10,279.10
2008,06,09,10,11,275.30
2008,06,09,10,12,272.50
2008,06,09,10,13,269.70
2008,06,09,10,14,265.70
2008,06,09,10,15,262.30
2008,06,09,10,16,257.30
2008,06,09,10,17,255.30
2008,06,09,10,18,255.00
2008,06,09,10,19,253.00
2008,06,09,10,20,250.00
2008,06,09,10,21,242.60
2008,06,09,10,22,235.30
2008,06,09,10,23,227.60
2008,06,09,10,24,220.30
2008,06,09,10,25,217.10
2008,06,09,10,26,213.00
2008,06,09,10,27,209.30
2008,06,09,10,28,203.30
2008,06,09,10,29,196.50
2008,06,09,10,30,191.50
2008,06,09,10,31,187.20
2008,06,09,10,32,181.50
2008,06,09,10,33,179.00
2008,06,09,10,34,168.80
2008,06,09,10,35,151.30
2008,06,09,10,36,137.10
2008,06,09,10,37,122.50
2008,06,09,10,38,109.20
2008,06,09,10,39,98.50
2008,06,09,10,40,93.00
2008,06,09,10,41,93.00
2008,06,09,10,42,97.00
2008,06,09,10,43,104.00
2008,06,09,10,44,116.60
2008,06,09,10,45,128.40
2008,06,09,10,46,140.30
2008,06,09,10,47,149.10
2008,06,09,10,48,154.20
2008,06,09,10,49,159.20
2008,06,09,10,50,165.10
2008,06,09,10,51,170.20
2008,06,09,10,52,172.90
2008,06,09,10,53,176.00
2008,06,09,10,54,180.80
2008,06,09,10,55,188.30
2008,06,09,10,56,198.60
2008,06,09,10,57,212.40
2008,06,09,10,58,227.90
2008,06,09,10,59,246.50
2008,06,09,11,00,251.00
2008,06,09,11,01,285.40
2008,06,09,11,02,290.00
2008,06,09,11,03,321.10
2008,06,09,11,04,334.00
2008,06,09,11,05,342.10
2008,06,09,11,06,350.00
2008,06,09,11,07,357.00
2008,06,09,11,08,354.50
2008,06,09,11,09,334.60
2008,06,09,11,10,318.40
2008,06,09,11,11,303.50
2008,06,09,11,12,294.40
2008,06,09,11,13,286.90
2008,06,09,11,14,287.70
2008,06,09,11,15,300.80
2008,06,09,11,16,315.00
2008,06,09,11,17,346.20
2008,06,09,11,18,386.20
2008,06,09,11,19,419.70
2008,06,09,11,20,423.30
2008,06,09,11,21,442.00
2008,06,09,11,22,481.40
2008,06,09,11,23,528.20
2008,06,09,11,24,476.90
2008,06,09,11,25,448.00
2008,06,09,11,26,469.40
2008,06,09,11,27,471.00
2008,06,09,11,28,471.00
2008,06,09,11,29,471.00
2008,06,09,11,30,413.10
2008,06,09,11,31,379.40
2008,06,09,11,32,366.00
2008,06,09,11,33,360.40
2008,06,09,11,34,367.30
2008,06,09,11,35,380.70
2008,06,09,11,36,372.50
2008,06,09,11,37,346.20
2008,06,09,11,38,324.30
2008,06,09,11,39,313.10
2008,06,09,11,40,308.20
2008,06,09,11,41,306.00
2008,06,09,11,42,307.20
2008,06,09,11,43,308.50
2008,06,09,11,44,308.30
2008,06,09,11,45,308.00
2008,06,09,11,46,316.30
2008,06,09,11,47,318.00
2008,06,09,11,48,328.60
2008,06,09,11,49,334.90
2008,06,09,11,50,338.00
2008,06,09,11,51,338.00
2008,06,09,11,52,309.00
2008,06,09,11,53,285.90
2008,06,09,11,54,265.10
2008,06,09,11,55,245.10
2008,06,09,11,56,226.20
2008,06,09,11,57,209.90
2008,06,09,11,58,199.10
2008,06,09,11,59,198.70
2008,06,09,12,00,206.30
2008,06,09,12,01,220.00
2008,06,09,12,02,236.30
2008,06,09,12,03,247.30
2008,06,09,12,04,251.80
2008,06,09,12,05,260.80
2008,06,09,12,06,278.80
2008,06,09,12,07,311.50
2008,06,09,12,08,335.60
2008,06,09,12,09,350.10
2008,06,09,12,10,364.40
2008,06,09,12,11,354.80
2008,06,09,12,12,324.50
2008,06,09,12,13,322.00
2008,06,09,12,14,329.00
2008,06,09,12,15,337.60
2008,06,09,12,16,337.90
2008,06,09,12,17,335.10
2008,06,09,12,18,326.70
2008,06,09,12,19,326.60
2008,06,09,12,20,325.90
2008,06,09,12,21,291.30
2008,06,09,12,22,250.40
2008,06,09,12,23,223.20
2008,06,09,12,24,207.80
2008,06,09,12,25,186.00
2008,06,09,12,26,159.30
2008,06,09,12,27,139.60
2008,06,09,12,28,124.20
2008,06,09,12,29,110.40
2008,06,09,12,30,93.60
2008,06,09,12,31,79.40
2008,06,09,12,32,72.80
2008,06,09,12,33,69.40
2008,06,09,12,34,67.40
2008,06,09,12,35,69.00
2008,06,09,12,36,69.00
2008,06,09,12,37,67.00
2008,06,09,12,38,67.00
2008,06,09,12,39,67.30
2008,06,09,12,40,70.80
2008,06,09,12,41,78.90
2008,06,09,12,42,90.10
2008,06,09,12,43,103.60
2008,06,09,12,44,117.70
2008,06,09,12,45,130.30
2008,06,09,12,46,139.90
2008,06,09,12,47,144.80
2008,06,09,12,48,146.00
2008,06,09,12,49,147.10
2008,06,09,12,50,150.50
2008,06,09,12,51,155.80
2008,06,09,12,52,161.50
2008,06,09,12,53,165.40
2008,06,09,12,54,167.00
2008,06,09,12,55,167.00
2008,06,09,12,56,167.00
2008,06,09,12,57,171.00
2008,06,09,12,58,182.40
2008,06,09,12,59,190.00
2008,06,09,13,00,198.10
2008,06,09,13,01,207.00
2008,06,09,13,02,207.00
2008,06,09,13,03,206.90
2008,06,09,13,04,205.70
2008,06,09,13,05,204.00
2008,06,09,13,06,204.00
2008,06,09,13,07,198.40
2008,06,09,13,08,180.70
2008,06,09,13,09,174.00
2008,06,09,13,10,176.40
2008,06,09,13,11,184.60
2008,06,09,13,12,194.10
2008,06,09,13,13,199.00
2008,06,09,13,14,215.80
2008,06,09,13,15,239.00
2008,06,09,13,16,247.50
2008,06,09,13,17,248.00
2008,06,09,13,18,240.60
2008,06,09,13,19,231.50
2008,06,09,13,20,214.40
2008,06,09,13,21,194.00
2008,06,09,13,22,174.00
2008,06,09,13,23,165.00
2008,06,09,13,24,162.10
2008,06,09,13,25,152.90
2008,06,09,13,26,151.00
2008,06,09,13,27,151.00
2008,06,09,13,28,151.00
2008,06,09,13,29,150.50
2008,06,09,13,30,145.80
2008,06,09,13,31,139.70
2008,06,09,13,32,141.00
2008,06,09,13,33,137.90
2008,06,09,13,34,134.00
2008,06,09,13,35,134.00
2008,06,09,13,36,141.10
2008,06,09,13,37,146.00
2008,06,09,13,38,155.60
2008,06,09,13,39,150.70
2008,06,09,13,40,146.00
2008,06,09,13,41,144.40
2008,06,09,13,42,157.50
2008,06,09,13,43,178.80
2008,06,09,13,44,182.90
2008,06,09,13,45,167.60
2008,06,09,13,46,158.00
2008,06,09,13,47,160.00
2008,06,09,13,48,155.80
2008,06,09,13,49,152.40
2008,06,09,13,50,148.00
2008,06,09,13,51,148.00
2008,06,09,13,52,143.10
2008,06,09,13,53,128.80
2008,06,09,13,54,134.00
2008,06,09,13,55,134.00
2008,06,09,13,56,134.40
2008,06,09,13,57,145.50
2008,06,09,13,58,156.00
2008,06,09,13,59,178.00
2008,06,09,14,00,203.00
2008,06,09,14,01,203.00
2008,06,09,14,02,185.50
2008,06,09,14,03,181.00
2008,06,09,14,04,181.00
2008,06,09,14,05,181.00
2008,06,09,14,06,181.00
2008,06,09,14,07,165.80
2008,06,09,14,08,160.30
2008,06,09,14,09,160.00
2008,06,09,14,10,114.00
2008,06,09,14,11,113.00
2008,06,09,14,12,113.00
2008,06,09,14,13,113.00
2008,06,09,14,14,115.70
2008,06,09,14,15,124.90
2008,06,09,14,16,116.50
2008,06,09,14,17,113.00
2008,06,09,14,18,113.00
2008,06,09,14,19,113.00
2008,06,09,14,20,110.20
2008,06,09,14,21,107.00
2008,06,09,14,22,111.10
2008,06,09,14,23,116.60
2008,06,09,14,24,118.00
2008,06,09,14,25,99.90
2008,06,09,14,26,93.00
2008,06,09,14,27,93.00
2008,06,09,14,28,93.00
2008,06,09,14,29,56.20
2008,06,09,14,30,52.60
2008,06,09,14,31,56.00
2008,06,09,14,32,56.00
2008,06,09,14,33,56.00
2008,06,09,14,34,67.20
2008,06,09,14,35,70.50
2008,06,09,14,36,73.70
2008,06,09,14,37,72.00
2008,06,09,14,38,71.20
2008,06,09,14,39,69.00
2008,06,09,14,40,69.00
2008,06,09,14,41,78.10
2008,06,09,14,42,102.60
2008,06,09,14,43,114.00
2008,06,09,14,44,151.60
2008,06,09,14,45,200.90
2008,06,09,14,46,212.90
2008,06,09,14,47,214.00
2008,06,09,14,48,206.80
2008,06,09,14,49,196.10
2008,06,09,14,50,188.90
2008,06,09,14,51,188.00
2008,06,09,14,52,212.90
2008,06,09,14,53,237.70
2008,06,09,14,54,239.00
2008,06,09,14,55,239.00
2008,06,09,14,56,339.00
2008,06,09,14,57,353.00
2008,06,09,14,58,353.20
2008,06,09,14,59,349.50
2008,06,09,15,00,322.00
2008,06,09,15,01,322.00
2008,06,09,15,02,322.00
2008,06,09,15,03,322.00
2008,06,09,15,04,279.30
2008,06,09,15,05,191.40
2008,06,09,15,06,179.00
2008,06,09,15,07,179.00
2008,06,09,15,08,179.00
2008,06,09,15,09,127.00
2008,06,09,15,10,88.00
2008,06,09,15,11,70.40
2008,06,09,15,12,63.00
2008,06,09,15,13,63.00
2008,06,09,15,14,60.70
2008,06,09,15,15,60.00
2008,06,09,15,16,69.40
2008,06,09,15,17,93.00
2008,06,09,15,18,111.90
2008,06,09,15,19,131.10
2008,06,09,15,20,152.90
2008,06,09,15,21,148.90
2008,06,09,15,22,128.10
2008,06,09,15,23,113.60
2008,06,09,15,24,107.10
2008,06,09,15,25,91.00
2008,06,09,15,26,74.80
2008,06,09,15,27,64.60
2008,06,09,15,28,57.30
2008,06,09,15,29,54.00
2008,06,09,15,30,43.20
2008,06,09,15,31,27.10
2008,06,09,15,32,25.00
2008,06,09,15,33,22.80
2008,06,09,15,34,21.00
2008,06,09,15,35,21.00
2008,06,09,15,36,21.00
2008,06,09,15,37,24.50
2008,06,09,15,38,27.40
2008,06,09,15,39,36.50
2008,06,09,15,40,54.00
2008,06,09,15,41,90.00
2008,06,09,15,42,132.80
2008,06,09,15,43,177.30
2008,06,09,15,44,201.10
2008,06,09,15,45,218.50
2008,06,09,15,46,220.10
2008,06,09,15,47,214.20
2008,06,09,15,48,202.00
2008,06,09,15,49,179.30
2008,06,09,15,50,156.20
2008,06,09,15,51,143.40
2008,06,09,15,52,131.00
2008,06,09,15,53,121.70
2008,06,09,15,54,113.90
2008,06,09,15,55,114.30
2008,06,09,15,56,124.50
2008,06,09,15,57,137.10
2008,06,09,15,58,147.40
2008,06,09,15,59,156.40
2008,06,09,16,00,166.00
2008,06,09,16,01,183.90
2008,06,09,16,02,208.80
2008,06,09,16,03,232.00
2008,06,09,16,04,227.50
2008,06,09,16,05,218.40
2008,06,09,16,06,244.90
2008,06,09,16,07,280.40
2008,06,09,16,08,275.10
2008,06,09,16,09,269.40
2008,06,09,16,10,257.60
2008,06,09,16,11,248.30
2008,06,09,16,12,242.60
2008,06,09,16,13,235.30
2008,06,09,16,14,222.20
2008,06,09,16,15,206.60
2008,06,09,16,16,204.80
2008,06,09,16,17,227.30
2008,06,09,16,18,279.80
2008,06,09,16,19,330.70
2008,06,09,16,20,345.00
2008,06,09,16,21,334.60
2008,06,09,16,22,340.50
2008,06,09,16,23,343.00
2008,06,09,16,24,343.00
2008,06,09,16,25,281.60
2008,06,09,16,26,271.00
2008,06,09,16,27,292.00
2008,06,09,16,28,321.50
2008,06,09,16,29,276.60
2008,06,09,16,30,285.70
2008,06,09,16,31,261.10
2008,06,09,16,32,239.00
2008,06,09,16,33,224.30
2008,06,09,16,34,181.90
2008,06,09,16,35,172.00
2008,06,09,16,36,172.00
2008,06,09,16,37,178.60
2008,06,09,16,38,187.10
2008,06,09,16,39,172.20
2008,06,09,16,40,149.40
2008,06,09,16,41,145.30
2008,06,09,16,42,171.90
2008,06,09,16,43,223.40
2008,06,09,16,44,276.90
2008,06,09,16,45,275.60
2008,06,09,16,46,236.60
2008,06,09,16,47,205.60
2008,06,09,16,48,174.20
2008,06,09,16,49,169.00
2008,06,09,16,50,129.40
2008,06,09,16,51,143.10
2008,06,09,16,52,162.80
2008,06,09,16,53,176.00
2008,06,09,16,54,174.90
2008,06,09,16,55,166.20
2008,06,09,16,56,163.00
2008,06,09,16,57,157.50
2008,06,09,16,58,129.70
2008,06,09,16,59,94.60
2008,06,09,17,00,72.00
2008,06,09,17,01,102.00
2008,06,09,17,02,144.20
2008,06,09,17,03,151.50
2008,06,09,17,04,120.50
2008,06,09,17,05,79.70
2008,06,09,17,06,64.60
2008,06,09,17,07,63.00
2008,06,09,17,08,51.50
2008,06,09,17,09,60.60
2008,06,09,17,10,69.50
2008,06,09,17,11,69.10
2008,06,09,17,12,65.60